Wind_Speed
44 44 45 45 46 47 48 49 51 52 54 55 56 58 59 60 61 61 62 63 63 63 64 65 66 67 68 69 70 71 72 73 74 75 75 76 77 77 78 79 81 82
44 45 45 46 47 48 48 50 52 54 55 56 57 58 59 60 61 62 62 64 64 65 66 67 67 68 69 70 71 72 73 74 74 75 76 76 77 78 79 81 83 84
45 46 47 48 48 49 51 52 54 55 56 56 57 58 59 60 62 63 63 64 65 66 67 68 69 69 70 71 71 72 73 74 74 75 76 77 78 80 82 83 85 86
47 48 49 50 51 52 53 54 55 55 56 57 58 59 60 61 63 64 65 66 67 68 69 70 71 71 72 72 73 74 74 74 75 76 77 78 80 82 83 85 86 87
49 51 51 52 53 54 55 55 56 57 57 58 59 60 61 63 64 65 67 68 69 70 71 72 73 73 74 75 75 76 76 76 76 77 78 80 81 83 84 85 87 88
52 53 53 53 55 56 56 57 58 59 60 60 61 62 63 64 66 67 68 70 71 72 73 74 74 75 76 76 77 78 78 78 78 79 80 81 83 85 86 87 88 90
55 55 55 56 57 58 59 59 60 61 62 63 63 64 66 67 68 69 70 72 73 73 74 75 75 76 77 78 79 79 79 79 79 81 82 84 85 87 88 89 90 91
58 58 58 59 60 61 62 62 63 64 65 65 66 67 68 69 70 71 72 73 74 75 76 76 77 77 79 80 81 81 80 80 81 82 84 85 87 89 90 91 91 91
61 61 61 62 62 64 65 65 66 67 68 68 69 70 71 72 73 73 74 75 76 76 77 78 79 80 82 83 83 82 81 81 82 84 85 87 88 90 91 92 92 93
63 63 63 64 65 66 67 68 69 70 71 71 72 73 74 75 75 75 75 76 77 78 79 80 82 84 85 85 84 83 82 83 84 85 86 87 89 90 91 92 93 94
64 65 65 66 67 68 70 71 72 73 73 73 74 75 76 77 76 77 78 79 79 80 81 83 85 86 86 85 83 83 83 84 85 85 86 88 89 91 92 93 95 96
65 66 67 68 69 70 72 73 74 74 75 76 77 78 78 78 79 79 80 81 82 83 84 86 87 86 84 83 83 83 83 84 85 86 87 89 91 93 94 96 97 98
66 68 69 70 71 72 73 74 75 76 77 78 79 79 80 81 81 82 83 83 85 86 88 88 87 84 82 81 82 83 84 85 86 87 89 91 92 94 95 97 98 99
68 69 71 72 73 74 75 76 78 79 79 80 81 82 83 84 84 84 85 87 89 89 89 88 85 82 81 82 83 85 86 87 88 89 90 91 93 94 95 96 97 99
70 72 73 74 75 76 77 79 80 80 81 82 83 85 86 86 86 87 88 90 90 90 88 86 84 83 83 85 86 88 88 89 90 90 91 93 94 95 96 97 99 100
73 74 75 76 77 79 80 81 81 82 83 85 86 87 87 88 89 90 91 91 90 88 87 85 84 85 87 89 90 90 90 90 91 92 93 95 96 97 98 100 101 102
76 77 78 79 80 81 82 82 83 84 85 87 87 88 89 90 91 92 92 91 90 88 85 84 85 87 90 91 92 92 92 92 93 94 95 96 97 99 100 101 102 104
79 80 81 82 83 83 83 84 85 86 87 88 89 90 91 92 93 93 92 91 89 87 84 84 87 90 92 93 93 94 94 94 95 95 96 97 99 101 102 103 104 106
81 82 83 85 85 86 86 87 88 89 89 90 91 92 92 93 93 93 92 90 88 86 85 86 89 92 94 95 96 96 97 96 96 96 97 98 101 102 104 106 108 110
83 84 86 87 88 89 89 89 90 90 91 92 92 92 93 94 94 93 92 90 88 87 88 90 92 95 96 97 98 98 98 97 97 97 98 101 103 104 106 108 110 112
86 87 89 90 90 90 91 91 91 92 93 94 93 94 94 95 95 94 92 91 90 89 90 91 94 96 97 98 99 99 98 98 99 100 101 103 105 106 108 110 112 113
88 90 90 90 90 91 92 93 94 95 95 95 95 95 95 95 95 94 93 92 92 92 92 92 95 96 97 98 99 99 100 100 101 102 103 105 106 108 110 111 113 114
90 90 90 91 92 93 94 95 96 96 96 95 95 95 95 95 95 95 94 93 93 93 93 93 95 96 97 98 99 100 100 101 103 104 106 107 109 111 112 113 114 116
90 90 91 92 94 95 95 95 95 95 95 95 94 95 95 95 95 94 94 93 93 93 93 94 95 96 97 99 100 101 102 103 105 107 108 110 111 112 113 115 116 117
91 92 93 93 94 94 94 94 94 94 94 94 95 96 96 96 95 94 93 93 93 94 94 95 96 98 99 100 101 103 104 106 108 109 111 112 113 114 115 116 117 118
92 93 93 93 94 94 94 95 95 95 95 96 96 97 96 96 95 95 94 94 94 95 96 97 98 100 101 102 103 105 107 108 110 112 113 114 115 115 116 117 118 119
Wind_Direction
283 283 284 285 285 285 286 287 289 290 290 291 292 292 292 292 291 290 290 290 290 290 291 291 292 292 293 293 293 294 294 293 293 293 293 293 293 293 293 293 293 294
285 285 285 285 284 284 286 288 290 290 291 292 292 292 292 291 291 290 290 290 290 291 292 293 293 294 295 295 296 296 296 296 295 295 294 294 294 294 294 293 294 294
286 286 285 284 284 286 288 290 291 292 293 294 294 294 293 293 292 292 292 292 293 294 295 295 296 297 297 298 298 298 298 298 297 296 295 295 294 294 294 294 294 295
286 286 286 285 285 287 289 291 292 293 295 296 296 296 295 295 295 295 295 295 296 297 297 298 298 298 299 299 300 300 300 299 298 296 295 295 295 294 295 295 295 296
285 286 286 286 287 288 290 291 292 294 295 296 297 297 297 296 296 296 297 297 298 298 299 299 299 299 300 301 301 301 300 299 297 296 296 296 296 296 296 296 297 297
284 285 286 287 288 289 290 292 293 294 295 296 296 297 296 296 297 297 297 298 298 299 299 299 299 299 299 301 301 300 299 297 296 296 296 297 297 297 297 298 297 297
284 285 286 287 289 290 291 292 293 294 295 296 296 296 296 297 297 297 297 298 298 298 298 298 298 298 299 299 299 298 297 296 296 296 296 297 297 297 297 297 297 296
286 286 287 289 290 291 292 293 294 294 295 295 295 296 296 296 296 297 297 297 298 298 297 296 296 296 297 298 298 297 296 296 295 295 295 296 296 296 296 296 296 296
286 286 287 289 290 291 292 293 294 294 294 294 294 295 296 296 296 296 297 297 297 297 296 295 295 295 296 296 296 295 295 294 294 294 294 295 295 296 296 296 296 296
285 286 287 288 289 290 291 292 293 293 293 293 293 294 295 296 296 296 296 296 297 296 296 295 295 295 296 295 294 293 292 292 293 294 294 295 295 296 296 296 295 294
285 286 287 288 288 289 290 291 292 292 292 293 293 294 295 295 295 295 295 296 296 296 296 296 296 295 295 294 292 291 291 292 293 293 294 295 295 294 294 294 293 293
285 285 286 286 287 288 289 290 291 291 291 292 292 293 294 294 294 295 295 295 296 296 296 296 296 294 293 292 291 291 291 291 292 293 293 293 293 293 293 293 294 294
284 284 285 285 286 288 289 289 290 290 290 291 292 293 293 294 294 295 295 295 296 296 296 296 294 293 291 291 291 291 291 292 292 293 293 293 293 294 294 294 294 294
284 284 285 285 286 288 288 289 289 289 290 291 292 293 293 294 294 294 295 295 296 296 295 294 292 290 290 291 291 291 292 292 293 293 294 294 295 295 295 295 295 295
284 284 284 285 286 287 287 287 288 288 290 291 292 293 293 294 294 294 295 296 296 295 294 292 290 289 289 291 291 292 292 293 293 294 295 295 295 296 295 295 295 296
283 284 284 284 285 286 286 286 287 288 289 291 292 293 293 293 294 295 296 296 296 295 293 291 289 289 290 291 292 293 293 293 293 294 295 295 296 296 296 296 297 297
283 283 284 284 284 285 285 286 286 288 289 291 292 292 293 294 295 296 296 296 295 293 291 289 288 289 291 292 293 293 293 293 294 295 295 296 297 297 297 298 299 300
282 283 283 284 284 285 285 285 286 288 289 290 292 293 293 294 295 295 296 296 294 292 290 289 288 289 291 292 293 292 293 293 295 296 296 297 298 298 299 300 300 301
281 282 282 283 284 284 285 285 286 288 289 290 292 292 293 293 294 295 295 294 292 290 288 287 288 289 290 291 291 292 293 294 295 296 297 298 299 299 301 302 302 302
280 281 282 283 284 284 285 285 286 288 289 290 291 291 291 292 292 293 292 292 290 289 288 287 288 288 289 290 291 292 294 295 295 296 296 297 298 300 301 302 303 303
280 280 281 282 283 284 284 285 286 287 289 289 290 289 290 290 290 291 291 290 289 289 288 288 288 289 290 291 292 293 294 294 295 296 296 297 299 300 302 302 303 303
279 280 281 282 282 283 284 285 286 287 288 288 288 288 288 288 289 289 289 289 288 288 288 288 289 290 291 292 292 293 294 295 296 297 298 299 301 302 302 303 303 303
279 280 281 281 282 283 284 285 286 286 286 286 286 286 287 287 288 288 288 288 288 288 288 288 289 290 292 293 293 295 296 297 299 300 301 302 302 303 303 303 303 303
278 279 280 281 282 283 284 284 284 284 284 284 285 285 286 287 287 287 287 287 287 288 288 289 290 291 292 293 295 296 298 299 301 302 302 303 303 303 303 303 303 303
278 278 279 280 281 282 282 282 283 283 283 283 284 285 286 286 287 286 286 287 287 288 289 290 291 292 293 294 296 297 299 300 302 303 303 303 303 303 303 302 302 302
277 278 278 279 279 280 280 281 281 281 282 282 283 284 285 285 286 286 286 287 288 289 290 291 292 293 295 296 297 299 300 302 302 303 303 303 303 303 302 302 302 303
Height
10696 10694 10693 10692 10690 10688 10686 10685 10682 10680 10678 10676 10674 10672 10670 10668 10666 10664 10661 10658 10655 10653 10650 10648 10645 10642 10639 10636 10633 10630 10627 10623 10620 10616 10613 10609 10606 10602 10598 10594 10590 10586
10689 10688 10687 10685 10684 10682 10681 10679 10676 10674 10672 10670 10669 10666 10664 10661 10658 10657 10654 10651 10648 10646 10643 10640 10637 10634 10631 10628 10624 10621 10618 10614 10611 10607 10603 10600 10596 10593 10589 10585 10581 10577
10683 10682 10680 10679 10677 10676 10675 10673 10670 10667 10666 10664 10662 10660 10657 10654 10651 10648 10646 10643 10641 10638 10635 10632 10629 10626 10622 10619 10616 10612 10609 10605 10601 10598 10594 10591 10587 10583 10579 10576 10572 10568
10677 10676 10674 10673 10671 10669 10668 10666 10663 10661 10659 10657 10655 10653 10650 10647 10644 10640 10638 10635 10632 10629 10627 10623 10620 10617 10614 10610 10607 10604 10600 10596 10592 10589 10585 10581 10578 10574 10570 10566 10562 10558
10671 10670 10668 10666 10664 10663 10661 10658 10656 10654 10652 10649 10647 10645 10642 10639 10636 10633 10629 10626 10624 10621 10618 10615 10612 10608 10605 10602 10598 10595 10591 10587 10583 10579 10576 10572 10568 10564 10560 10557 10553 10548
10665 10664 10662 10660 10657 10655 10653 10651 10649 10647 10645 10642 10640 10637 10634 10631 10628 10625 10621 10618 10615 10613 10609 10606 10603 10599 10596 10593 10589 10585 10582 10578 10574 10570 10566 10563 10559 10555 10551 10547 10543 10538
10658 10656 10655 10653 10650 10648 10646 10643 10641 10639 10637 10635 10632 10629 10626 10623 10620 10617 10613 10610 10607 10604 10601 10597 10594 10591 10587 10584 10580 10576 10572 10568 10565 10561 10557 10553 10549 10545 10541 10537 10533 10528
10650 10648 10646 10645 10642 10640 10638 10636 10634 10632 10629 10627 10623 10620 10617 10615 10612 10608 10605 10601 10598 10595 10592 10588 10585 10582 10578 10575 10571 10567 10563 10559 10555 10551 10548 10544 10540 10536 10531 10527 10522 10518
10642 10640 10638 10637 10634 10632 10630 10627 10625 10623 10621 10618 10615 10612 10609 10606 10603 10600 10596 10593 10589 10586 10583 10579 10576 10572 10569 10565 10561 10558 10554 10550 10546 10542 10538 10534 10530 10526 10521 10516 10512 10507
10634 10632 10630 10629 10626 10624 10622 10619 10617 10614 10612 10609 10606 10603 10600 10597 10594 10591 10587 10584 10580 10577 10574 10570 10567 10563 10559 10556 10552 10548 10545 10541 10537 10533 10529 10524 10520 10515 10510 10506 10501 10496
10626 10624 10622 10620 10618 10616 10613 10611 10608 10606 10603 10600 10597 10594 10591 10589 10585 10582 10578 10575 10571 10568 10564 10561 10557 10553 10550 10546 10542 10539 10535 10531 10527 10524 10520 10515 10510 10505 10500 10495 10490 10484
10618 10616 10614 10612 10610 10607 10605 10602 10599 10597 10594 10591 10588 10586 10583 10579 10576 10573 10570 10566 10562 10559 10555 10551 10547 10543 10540 10536 10532 10529 10525 10522 10518 10515 10510 10505 10500 10494 10490 10484 10478 10472
10610 10608 10605 10603 10600 10598 10596 10593 10590 10587 10585 10582 10579 10576 10573 10570 10567 10564 10560 10556 10552 10549 10545 10541 10537 10533 10529 10525 10522 10518 10515 10512 10508 10504 10500 10495 10489 10484 10479 10473 10466 10460
10601 10599 10596 10593 10591 10589 10586 10583 10580 10577 10575 10572 10569 10566 10563 10560 10557 10554 10550 10546 10542 10538 10534 10530 10526 10522 10518 10514 10511 10507 10504 10501 10498 10493 10489 10484 10478 10473 10467 10461 10454 10448
10591 10589 10587 10584 10582 10579 10576 10574 10571 10568 10565 10562 10558 10555 10552 10549 10546 10543 10540 10536 10531 10527 10523 10519 10515 10511 10507 10503 10500 10496 10493 10490 10487 10482 10478 10472 10467 10461 10455 10448 10442 10436
10580 10578 10576 10575 10572 10569 10566 10564 10561 10558 10555 10551 10548 10545 10542 10538 10536 10532 10529 10524 10520 10516 10512 10508 10504 10500 10496 10492 10488 10485 10482 10479 10475 10471 10466 10461 10455 10448 10442 10435 10429 10423
10570 10568 10566 10563 10561 10559 10556 10553 10551 10548 10545 10541 10538 10534 10531 10527 10524 10521 10517 10513 10509 10505 10501 10498 10493 10488 10484 10481 10477 10474 10470 10467 10464 10460 10454 10448 10442 10435 10428 10422 10417 10410
10560 10557 10555 10552 10550 10548 10546 10543 10540 10537 10534 10531 10527 10524 10520 10516 10512 10509 10506 10503 10498 10494 10490 10487 10482 10477 10473 10470 10466 10462 10458 10456 10452 10448 10442 10436 10429 10422 10415 10409 10403 10397
10550 10548 10544 10541 10539 10536 10535 10533 10529 10526 10523 10520 10517 10514 10510 10506 10502 10498 10495 10492 10488 10483 10479 10475 10471 10466 10461 10458 10454 10451 10447 10445 10441 10436 10431 10424 10416 10409 10402 10395 10389 10382
10540 10537 10534 10530 10527 10525 10523 10521 10518 10515 10512 10509 10506 10503 10499 10496 10491 10488 10485 10481 10478 10473 10469 10464 10458 10453 10450 10446 10442 10439 10436 10433 10430 10425 10419 10411 10404 10397 10391 10383 10375 10369
10530 10526 10523 10520 10516 10514 10511 10509 10507 10504 10501 10498 10495 10492 10489 10485 10481 10478 10475 10471 10467 10462 10458 10453 10446 10441 10438 10435 10430 10427 10424 10421 10417 10412 10406 10399 10392 10386 10379 10371 10364 10356
10518 10515 10512 10509 10506 10503 10500 10497 10495 10492 10489 10486 10484 10481 10478 10475 10471 10467 10463 10460 10455 10451 10447 10442 10435 10430 10427 10423 10418 10415 10412 10408 10404 10398 10392 10386 10379 10372 10365 10358 10351 10343
10506 10504 10501 10498 10495 10492 10489 10486 10483 10480 10477 10475 10472 10470 10467 10463 10460 10456 10452 10448 10444 10440 10435 10431 10425 10420 10415 10410 10406 10402 10398 10394 10389 10384 10378 10372 10365 10358 10351 10345 10337 10329
10495 10493 10490 10487 10484 10481 10478 10475 10472 10469 10466 10463 10460 10458 10455 10452 10449 10445 10441 10437 10433 10428 10424 10419 10414 10409 10404 10398 10394 10390 10385 10380 10375 10370 10364 10358 10351 10345 10338 10331 10323 10315
10483 10481 10478 10475 10472 10469 10466 10464 10461 10458 10455 10452 10449 10447 10444 10440 10437 10434 10430 10426 10422 10417 10412 10406 10402 10397 10392 10386 10381 10377 10372 10366 10361 10356 10350 10343 10337 10332 10325 10317 10309 10301
10471 10468 10466 10463 10460 10458 10455 10452 10450 10447 10443 10441 10438 10435 10432 10428 10425 10421 10418 10414 10410 10405 10399 10394 10388 10383 10378 10373 10368 10363 10358 10353 10347 10342 10336 10329 10324 10318 10311 10302 10294 10286